Hourly Data Report for May 04, 2003

SHERBROOKE A
QUEBEC

45°26'00.000" N
71°41'00.000" W
241.40 m
7028124
71610
YSC

Download Data

Hourly Data (May 2003)
Hourly Data Report for May 4, 2003
TIME
LST
Temp Definition
°C
Dew Point Definition
°C
Rel Hum Definition
%
Precip. Amount Definition
mm

Wind Dir Definition
10's deg

Wind Spd Definition
km/h
Visibility Definition
km
Stn Press Definition
kPa
Hmdx Definition


Wind Chill Definition


Weather Definition


00:00 -1.5 -3.3 88   8 4 15.0 99.25   -3  
01:00 -2.0 -3.6 89   8 6 15.0 99.25   -4  
02:00 -2.2 -3.9 88   8 4 15.0 99.26   -4  
03:00 -2.8 -4.4 89   9 4 15.0 99.28   -4  
04:00 -3.1 -4.3 91   8 4 15.0 99.27   -5  
05:00 -2.8 -4.2 90   7 4 15.0 99.30   -4  
06:00 1.7 -1.4 80     0 15.0 99.37      
07:00 5.5 -0.5 65     0 24.1 99.36     Clear
08:00 8.6 -1.2 50   23 11 24.1 99.35     Clear
09:00 12.4 -2.2 36   23 13 24.1 99.35     Clear
10:00 14.1 -2.2 32   22 15 24.1 99.33     Mainly Clear
11:00 16.5 -3.3 26   25 11 24.1 99.23     Mainly Clear
12:00 17.3 -3.7 24   25 20 24.1 99.15     Mainly Clear
13:00 18.1 -3.2 23   28 30 24.1 99.13     Clear
14:00 18.6 -2.6 24   25 11 24.1 99.06     Clear
15:00 18.9 -1.1 26   27 26 24.1 98.98     Clear
16:00 18.8 -2.0 24   31 11 24.1 98.96     Clear
17:00 18.4 -1.5 26   29 9 15.0 99.02      
18:00 17.1 -0.8 30   28 9 15.0 99.05      
19:00 14.0 -0.4 37   28 7 15.0 99.10      
20:00 10.7 0.5 49   25 9 15.0 99.17      
21:00 6.2 0.7 68   20 6 15.0 99.14      
22:00 5.7 1.6 75   9 6 15.0 99.13      
23:00 4.4 1.2 80   8 4 15.0 99.16      

Notes on Data Quality.

Legend

  • E = Estimated
  • M = Missing
  • NA = Not Available*
  • [empty] = Indicates an unobserved value
Date modified: